Chatham, MA

3:21 PM EST on December 12, 2017 (GMT -0500)
Chatham Municipal

Weather History for KCQX - January, 2013

Change the Weather History Date:

Sunday, January 6, 2013

  Actual Average Record
Temperature  
Mean Temperature 34 °F -  
Max Temperature 41 °F 38 °F 55 °F (2007)
Min Temperature 26 °F 25 °F 11 °F (1976)
Degree Days  
Heating Degree Days 32    
Moisture  
Dew Point 31 °F    
Average Humidity 84    
Maximum Humidity 96    
Minimum Humidity 73    
Precipitation  
Precipitation 0.01 in - - ()
Sea Level Pressure  
Sea Level Pressure 30.06 in    
Wind  
Wind Speed 3 mph (WSW)    
Max Wind Speed 10 mph    
Max Gust Speed 24 mph    
Visibility 9 miles    
Events Rain , Snow    
Averages and records for this station are not official NWS values.
T = Trace of Precipitation, MM = Missing Value Source: NWS Daily Summary

Daily Weather History Graph

Daily Weather History Graph

Search for Another Location

Airport or City:

Trip Planner

Search our weather history database for the weather conditions in past years. The results will help you decide how hot, cold, wet, or windy it might be!

Date:

Astronomy

Jan. 06, 2013 Rise Set
Actual Time 7:07 AM EST 4:25 PM EST
Civil Twilight 6:35 AM EST 4:56 PM EST
Nautical Twilight 6:01 AM EST 5:31 PM EST
Astronomical Twilight 5:27 AM EST 6:04 PM EST
Moon 1:15 AM EST (1/6) 11:51 AM EST (1/6)
Length of Visible Light 10h 20m
Length of Day
9h 18m
Waning Crescent, 33% of the Moon is Illuminated
Jan 6
Waning Crescent
Jan 11
New
Jan 18
First Quarter
Jan 26
Full
Feb 3
Last Quarter

Hourly Weather History & Observations

Time (EST) Temp. Windchill Dew Point Humidity Pressure Visibility Wind Dir Wind Speed Gust Speed Precip Events Conditions
12:52 AM 26.1 °F - 21.9 °F 84% 30.21 in 10.0 mi Calm Calm - N/A   Clear
1:52 AM 30.0 °F - 24.1 °F 79% 30.21 in 10.0 mi Calm Calm - N/A   Clear
2:52 AM 34.0 °F 29.8 °F 28.9 °F 82% 30.23 in 10.0 mi WSW 4.6 mph - N/A   Overcast
3:52 AM 33.1 °F - 28.0 °F 82% 30.19 in 10.0 mi Calm Calm - N/A   Overcast
4:52 AM 32.0 °F - 28.0 °F 85% 30.16 in 10.0 mi Calm Calm - N/A   Overcast
5:52 AM 32.0 °F - 28.0 °F 85% 30.13 in 10.0 mi Calm Calm - N/A   Overcast
6:20 AM 33.8 °F - 28.4 °F 81% 30.12 in 4.0 mi Calm Calm - 0.00 in Snow Light Snow
6:52 AM 33.1 °F 28.7 °F 30.0 °F 89% 30.13 in 2.5 mi SW 4.6 mph - 0.00 in Snow Light Snow
7:02 AM 33.8 °F 30.8 °F 30.2 °F 87% 30.12 in 4.0 mi SSW 3.5 mph - 0.00 in Snow Light Snow
7:52 AM 33.1 °F - 32.0 °F 96% 30.11 in 7.0 mi Calm Calm - 0.01 in Rain Light Rain
8:00 AM 33.8 °F - 32.0 °F 93% 30.10 in 7.0 mi Calm Calm - 0.00 in Rain Light Rain
8:52 AM 35.1 °F 28.6 °F 33.1 °F 92% 30.10 in 9.0 mi WSW 8.1 mph - 0.00 in   Overcast
9:04 AM 35.6 °F 29.9 °F 33.8 °F 93% 30.10 in 8.0 mi WSW 6.9 mph - N/A   Overcast
9:43 AM 35.6 °F 29.9 °F 33.8 °F 93% 30.10 in 8.0 mi WSW 6.9 mph - N/A   Overcast
9:52 AM 36.0 °F 30.3 °F 33.1 °F 89% 30.11 in 8.0 mi WSW 6.9 mph - N/A   Overcast
10:52 AM 39.0 °F 34.0 °F 35.1 °F 86% 30.07 in 10.0 mi Variable 6.9 mph - N/A   Partly Cloudy
11:52 AM 39.9 °F 33.9 °F 33.1 °F 77% 30.03 in 10.0 mi WSW 9.2 mph 24.2 mph N/A   Mostly Cloudy
12:13 PM 39.2 °F 34.2 °F 32.0 °F 75% 30.00 in 10.0 mi WSW 6.9 mph 17.3 mph N/A   Overcast
12:52 PM 39.0 °F 35.7 °F 33.1 °F 79% 29.99 in 10.0 mi SW 4.6 mph - N/A   Overcast
1:24 PM 39.2 °F 34.2 °F 33.8 °F 81% 29.97 in 10.0 mi SW 6.9 mph - N/A   Scattered Clouds
1:52 PM 39.9 °F 33.4 °F 34.0 °F 79% 29.99 in 10.0 mi WSW 10.4 mph 17.3 mph N/A   Clear
2:17 PM 41.0 °F 35.2 °F 33.8 °F 76% 29.98 in 10.0 mi West 9.2 mph 19.6 mph N/A   Mostly Cloudy
2:28 PM 41.0 °F 35.8 °F 33.8 °F 76% 29.98 in 10.0 mi WSW 8.1 mph 19.6 mph N/A   Scattered Clouds
2:52 PM 41.0 °F 34.7 °F 33.1 °F 73% 29.98 in 10.0 mi WSW 10.4 mph 21.9 mph N/A   Clear
3:52 PM 39.0 °F 35.7 °F 33.1 °F 79% 29.96 in 10.0 mi WSW 4.6 mph - N/A   Clear
4:52 PM 37.0 °F 33.3 °F 32.0 °F 82% 29.97 in 10.0 mi WSW 4.6 mph - N/A   Clear
5:52 PM 33.1 °F - 28.9 °F 85% 29.98 in 10.0 mi Calm Calm - N/A   Clear
6:52 PM 32.0 °F - 28.9 °F 88% 29.99 in 9.0 mi Calm Calm - N/A   Clear
7:52 PM 30.9 °F - 28.0 °F 89% 29.99 in 7.0 mi Calm Calm - N/A   Clear
8:52 PM 32.0 °F - 28.9 °F 88% 29.99 in 9.0 mi Calm Calm - N/A   Clear
9:52 PM 33.1 °F 30.0 °F 28.9 °F 85% 30.00 in 10.0 mi WNW 3.5 mph - N/A   Clear
10:52 PM 30.9 °F - 28.0 °F 89% 30.00 in 8.0 mi Calm Calm - N/A   Overcast
11:52 PM 30.9 °F - 28.0 °F 89% 29.98 in 8.0 mi Calm Calm - N/A   Overcast